Powrót do katalogu

STARLINK-30832

AktywnyŁącznośćVLEO
NORAD 58354·PAYLOAD·🇺🇸 United States

Wystrzelony Nov 18, 2023 z Cape Canaveral Space Force Station

Loading…

Następne Przeloty (najbliższe 24 godziny)

TLE

ŚwieżeSource: CelesTrak SupGP

Epoka: Sep 14, 2026, 21:05 UTC

1 58354C 23177D   26257.87895833 -.00045084  00000+0 -16326-2 0  2577
2 58354  43.0035   2.6767 0001543 267.2392 156.5360 15.27606641    19

Śledź STARLINK-30832 w czasie rzeczywistym z AllMySat

Download on the App Store